�������l�o���
Date,Time,MP-1(��Sv/h),MP-2(��Sv/h),MP-3(��Sv/h),MP-4(��Sv/h),MP-5(��Sv/h),MP-6(��Sv/h),MP-7(��Sv/h),����,����(m/s),���J
2019/02/18,00:00,0.215,0.194,0.319,0.296,0.276,0.158,0.096,���k��,2.7,��
2019/02/18,00:10,0.217,0.195,0.318,0.295,0.278,0.158,0.096,���k��,2.5,��
2019/02/18,00:20,0.216,0.195,0.318,0.296,0.278,0.158,0.095,���k��,2.0,��
2019/02/18,00:30,0.215,0.195,0.317,0.296,0.277,0.159,0.095,�k,1.4,��
2019/02/18,00:40,0.215,0.195,0.318,0.297,0.276,0.159,0.096,�k�k��,1.9,��
2019/02/18,00:50,0.215,0.195,0.318,0.298,0.277,0.159,0.096,�k�k��,3.5,��
2019/02/18,01:00,0.217,0.195,0.318,0.296,0.278,0.158,0.096,�k�k��,5.2,��
2019/02/18,01:10,0.216,0.196,0.318,0.296,0.278,0.159,0.096,�k�k��,6.3,��
2019/02/18,01:20,0.215,0.194,0.318,0.297,0.276,0.159,0.095,�k�k��,5.2,��
2019/02/18,01:30,0.217,0.195,0.318,0.296,0.277,0.159,0.096,���k��,4.9,��
2019/02/18,01:40,0.217,0.194,0.318,0.296,0.277,0.159,0.095,���k��,6.1,��
2019/02/18,01:50,0.215,0.196,0.319,0.296,0.278,0.158,0.096,���k��,4.9,��
2019/02/18,02:00,0.217,0.195,0.316,0.297,0.276,0.159,0.096,��,4.1,��
2019/02/18,02:10,0.215,0.195,0.319,0.297,0.278,0.159,0.095,���k��,3.7,��
2019/02/18,02:20,0.217,0.195,0.318,0.297,0.277,0.158,0.095,���k��,2.6,��
2019/02/18,02:30,0.216,0.195,0.317,0.297,0.277,0.158,0.095,��,3.4,��
2019/02/18,02:40,0.216,0.194,0.318,0.296,0.278,0.160,0.095,��,3.8,��
2019/02/18,02:50,0.216,0.196,0.318,0.296,0.277,0.157,0.096,��,4.0,��
2019/02/18,03:00,0.217,0.195,0.318,0.296,0.275,0.158,0.096,���k��,2.2,��
2019/02/18,03:10,0.217,0.195,0.318,0.296,0.276,0.158,0.095,���k��,0.9,��
2019/02/18,03:20,0.216,0.195,0.318,0.296,0.278,0.158,0.096,���k��,1.0,��
2019/02/18,03:30,0.216,0.196,0.318,0.297,0.277,0.158,0.095,�k��,0.7,��
2019/02/18,03:40,0.217,0.194,0.319,0.296,0.277,0.158,0.095,�k,0.9,��
2019/02/18,03:50,0.216,0.195,0.318,0.296,0.276,0.158,0.095,�k,1.3,��
2019/02/18,04:00,0.216,0.196,0.317,0.296,0.276,0.159,0.096,�k�k��,1.2,��
2019/02/18,04:10,0.215,0.196,0.318,0.297,0.277,0.158,0.095,�k�k��,1.0,��
2019/02/18,04:20,0.217,0.195,0.318,0.296,0.277,0.159,0.096,�k�k��,1.6,��
2019/02/18,04:30,0.216,0.195,0.319,0.296,0.277,0.158,0.096,�k�k��,0.8,��
2019/02/18,04:40,0.216,0.195,0.318,0.297,0.276,0.158,0.095,-,CALM,��
2019/02/18,04:50,0.216,0.195,0.318,0.296,0.276,0.159,0.095,-,CALM,��
2019/02/18,05:00,0.215,0.195,0.318,0.296,0.277,0.158,0.095,��,1.6,��
2019/02/18,05:10,0.216,0.195,0.319,0.297,0.277,0.158,0.096,���쓌,1.6,��
2019/02/18,05:20,0.216,0.195,0.320,0.297,0.277,0.158,0.095,���k��,1.3,��
2019/02/18,05:30,0.215,0.195,0.317,0.297,0.276,0.160,0.096,���쓌,1.3,��
2019/02/18,05:40,0.216,0.195,0.319,0.296,0.277,0.158,0.096,�쓌,1.2,��
2019/02/18,05:50,0.215,0.196,0.318,0.297,0.276,0.159,0.095,�쓌,2.0,��
2019/02/18,06:00,0.218,0.194,0.319,0.296,0.277,0.159,0.095,��쓌,2.4,��
2019/02/18,06:10,0.217,0.196,0.317,0.296,0.278,0.158,0.096,��쓌,2.5,��
2019/02/18,06:20,0.216,0.196,0.318,0.296,0.276,0.158,0.095,��,2.9,��
2019/02/18,06:30,0.216,0.196,0.318,0.296,0.277,0.159,0.097,�쐼,1.2,��
2019/02/18,06:40,0.216,0.194,0.318,0.297,0.276,0.159,0.096,��,1.1,��
2019/02/18,06:50,0.216,0.195,0.320,0.296,0.277,0.159,0.096,��,2.7,��
2019/02/18,07:00,0.217,0.195,0.318,0.297,0.278,0.158,0.095,�쐼,3.5,��
2019/02/18,07:10,0.216,0.195,0.318,0.295,0.276,0.159,0.096,�쐼,4.0,��
2019/02/18,07:20,0.215,0.195,0.317,0.295,0.276,0.158,0.095,��쐼,3.3,��
2019/02/18,07:30,0.217,0.196,0.317,0.295,0.276,0.159,0.095,��쐼,3.6,��
2019/02/18,07:40,0.215,0.194,0.318,0.296,0.277,0.159,0.095,��쐼,2.7,��
2019/02/18,07:50,0.216,0.195,0.318,0.296,0.277,0.158,0.096,���쐼,3.5,��
2019/02/18,08:00,0.216,0.196,0.318,0.296,0.277,0.159,0.095,��,3.9,��
2019/02/18,08:10,0.215,0.195,0.318,0.296,0.276,0.159,0.095,���쐼,6.0,��
2019/02/18,08:20,0.215,0.195,0.318,0.295,0.277,0.159,0.094,��,7.1,��
2019/02/18,08:30,0.215,0.194,0.317,0.294,0.278,0.159,0.095,��,6.8,��
2019/02/18,08:40,0.215,0.195,0.317,0.295,0.277,0.159,0.095,��,5.9,��
2019/02/18,08:50,0.216,0.195,0.318,0.295,0.278,0.158,0.096,��,7.3,��
2019/02/18,09:00,0.216,0.195,0.318,0.295,0.277,0.158,0.095,���쐼,7.7,��
2019/02/18,09:10,0.214,0.194,0.317,0.296,0.277,0.159,0.096,��,8.7,��
2019/02/18,09:20,0.215,0.194,0.317,0.295,0.277,0.158,0.095,��,7.9,��
2019/02/18,09:30,0.216,0.195,0.317,0.295,0.278,0.158,0.095,���쐼,8.1,��
2019/02/18,09:40,0.214,0.194,0.318,0.296,0.278,0.159,0.094,���쐼,4.5,��
2019/02/18,09:50,0.214,0.195,0.317,0.295,0.278,0.157,0.095,���쐼,6.2,��
2019/02/18,10:00,0.214,0.195,0.318,0.296,0.278,0.158,0.095,���쐼,6.6,��
2019/02/18,10:10,0.214,0.194,0.318,0.295,0.276,0.157,0.095,���쐼,5.7,��
2019/02/18,10:20,0.215,0.194,0.316,0.295,0.279,0.158,0.094,��,6.6,��
2019/02/18,10:30,0.215,0.193,0.319,0.294,0.275,0.157,0.096,���쐼,5.6,��
2019/02/18,10:40,0.213,0.195,0.316,0.295,0.279,0.158,0.095,���쐼,9.5,��
2019/02/18,10:50,0.215,0.195,0.318,0.294,0.276,0.159,0.095,��,10.1,��
2019/02/18,11:00,0.213,0.194,0.319,0.293,0.277,0.159,0.095,���쐼,7.4,��
2019/02/18,11:10,0.214,0.194,0.318,0.296,0.277,0.158,0.096,��,7.3,��
2019/02/18,11:20,0.214,0.194,0.317,0.296,0.279,0.160,0.095,��,9.8,��
2019/02/18,11:30,0.215,0.194,0.318,0.294,0.276,0.159,0.095,��,8.4,��
2019/02/18,11:40,0.215,0.194,0.316,0.297,0.277,0.159,0.095,���쐼,10.6,��
2019/02/18,11:50,0.215,0.194,0.317,0.293,0.276,0.157,0.095,��,10.9,��
2019/02/18,12:00,0.215,0.195,0.316,0.296,0.279,0.159,0.095,��,10.1,��
2019/02/18,12:10,0.214,0.195,0.317,0.294,0.277,0.159,0.095,��,9.6,��
2019/02/18,12:20,0.214,0.195,0.318,0.297,0.279,0.158,0.095,��,9.2,��
2019/02/18,12:30,0.215,0.195,0.316,0.295,0.277,0.158,0.095,���쐼,10.3,��
2019/02/18,12:40,0.215,0.195,0.318,0.296,0.278,0.159,0.095,��,12.3,��
2019/02/18,12:50,0.214,0.195,0.316,0.295,0.277,0.158,0.095,��,9.5,��
2019/02/18,13:00,0.216,0.194,0.317,0.296,0.279,0.158,0.096,��,12.5,��
2019/02/18,13:10,0.214,0.195,0.316,0.296,0.276,0.158,0.095,���k��,11.4,��
2019/02/18,13:20,0.215,0.193,0.316,0.296,0.280,0.159,0.095,���k��,12.0,��
2019/02/18,13:30,0.214,0.195,0.315,0.295,0.277,0.159,0.095,���k��,10.4,��
2019/02/18,13:40,0.214,0.194,0.319,0.296,0.280,0.158,0.095,��,8.7,��
2019/02/18,13:50,0.214,0.195,0.317,0.295,0.277,0.158,0.095,���k��,8.1,��
2019/02/18,14:00,0.215,0.195,0.318,0.295,0.279,0.159,0.095,��,10.9,��
2019/02/18,14:10,0.216,0.196,0.317,0.295,0.277,0.158,0.096,��,8.1,��
2019/02/18,14:20,0.214,0.196,0.317,0.296,0.280,0.158,0.095,���k��,11.2,��
2019/02/18,14:30,0.215,0.195,0.319,0.296,0.275,0.159,0.095,���k��,12.6,��
2019/02/18,14:40,0.215,0.194,0.318,0.296,0.278,0.159,0.095,��,12.2,��
2019/02/18,14:50,0.216,0.194,0.317,0.297,0.277,0.158,0.095,��,14.0,��
2019/02/18,15:00,0.216,0.194,0.319,0.296,0.279,0.159,0.095,��,10.1,��
2019/02/18,15:10,0.217,0.195,0.317,0.298,0.278,0.158,0.095,���k��,11.2,��
2019/02/18,15:20,0.215,0.194,0.317,0.297,0.279,0.159,0.095,���k��,9.2,��
2019/02/18,15:30,0.216,0.196,0.320,0.297,0.280,0.158,0.096,��,10.0,��
2019/02/18,15:40,0.217,0.196,0.318,0.296,0.279,0.158,0.095,���k��,9.7,��
2019/02/18,15:50,0.217,0.195,0.319,0.296,0.280,0.159,0.095,���k��,9.7,��
2019/02/18,16:00,0.215,0.195,0.319,0.297,0.278,0.158,0.095,���k��,9.0,��
2019/02/18,16:10,0.217,0.195,0.318,0.296,0.278,0.159,0.095,��,11.2,��
2019/02/18,16:20,0.216,0.195,0.318,0.296,0.279,0.158,0.095,��,12.8,��
2019/02/18,16:30,0.216,0.195,0.318,0.296,0.279,0.158,0.096,��,11.7,��
2019/02/18,16:40,0.216,0.195,0.319,0.296,0.278,0.159,0.095,��,10.1,��
2019/02/18,16:50,0.216,0.195,0.317,0.296,0.279,0.159,0.095,��,11.4,��
2019/02/18,17:00,0.215,0.196,0.318,0.296,0.279,0.159,0.096,��,12.0,��
2019/02/18,17:10,0.215,0.195,0.319,0.298,0.279,0.159,0.096,���k��,10.6,��
2019/02/18,17:20,0.216,0.196,0.318,0.298,0.279,0.160,0.094,���k��,11.5,��
2019/02/18,17:30,0.216,0.196,0.317,0.297,0.279,0.160,0.095,���k��,11.1,��
2019/02/18,17:40,0.216,0.195,0.318,0.297,0.278,0.160,0.095,���k��,11.7,��
2019/02/18,17:50,0.217,0.196,0.320,0.298,0.279,0.159,0.095,���k��,10.6,��
2019/02/18,18:00,0.217,0.195,0.318,0.297,0.279,0.159,0.096,���k��,10.9,��
2019/02/18,18:10,0.216,0.195,0.318,0.296,0.278,0.159,0.095,���k��,11.2,��
2019/02/18,18:20,0.216,0.195,0.318,0.297,0.279,0.159,0.095,���k��,9.5,��
2019/02/18,18:30,0.217,0.195,0.319,0.298,0.281,0.158,0.095,���k��,8.1,��
2019/02/18,18:40,0.216,0.195,0.318,0.296,0.278,0.159,0.095,���k��,3.7,��
2019/02/18,18:50,0.216,0.195,0.317,0.295,0.279,0.158,0.095,-,CALM,��
2019/02/18,19:00,0.216,0.194,0.318,0.296,0.277,0.158,0.095,��,3.1,��
2019/02/18,19:10,0.217,0.195,0.319,0.297,0.280,0.158,0.095,���k��,2.4,��
2019/02/18,19:20,0.217,0.195,0.317,0.296,0.278,0.159,0.095,�k�k��,1.4,��
2019/02/18,19:30,0.216,0.195,0.318,0.297,0.278,0.159,0.096,�k��,1.2,��
2019/02/18,19:40,0.216,0.195,0.318,0.297,0.277,0.158,0.095,��,1.5,��
2019/02/18,19:50,0.216,0.195,0.320,0.296,0.278,0.159,0.095,-,CALM,��
2019/02/18,20:00,0.216,0.196,0.318,0.296,0.277,0.158,0.095,���쐼,1.3,��
2019/02/18,20:10,0.216,0.195,0.317,0.296,0.278,0.159,0.096,��,2.6,��
2019/02/18,20:20,0.216,0.194,0.319,0.298,0.277,0.158,0.095,��,2.4,��
2019/02/18,20:30,0.216,0.194,0.318,0.297,0.278,0.158,0.095,��,1.0,��
2019/02/18,20:40,0.216,0.195,0.317,0.297,0.278,0.158,0.095,��,1.8,��
2019/02/18,20:50,0.216,0.195,0.318,0.296,0.277,0.158,0.095,�쐼,1.3,��
2019/02/18,21:00,0.218,0.196,0.317,0.298,0.278,0.159,0.095,��,0.8,��
2019/02/18,21:10,0.217,0.195,0.317,0.296,0.277,0.158,0.095,���k��,2.1,��
2019/02/18,21:20,0.216,0.196,0.317,0.295,0.278,0.159,0.095,��,3.5,��
2019/02/18,21:30,0.216,0.195,0.319,0.296,0.277,0.159,0.095,���k��,3.3,��
2019/02/18,21:40,0.216,0.195,0.319,0.296,0.278,0.159,0.095,��,3.6,��
2019/02/18,21:50,0.217,0.194,0.318,0.297,0.278,0.159,0.095,���k��,3.6,��
2019/02/18,22:00,0.217,0.195,0.319,0.296,0.277,0.158,0.096,�k��,1.6,��
2019/02/18,22:10,0.216,0.197,0.318,0.297,0.278,0.159,0.096,�k��,1.4,��
2019/02/18,22:20,0.216,0.195,0.318,0.297,0.279,0.158,0.095,�k��,1.6,��
2019/02/18,22:30,0.215,0.195,0.319,0.297,0.278,0.158,0.096,��,0.8,��
2019/02/18,22:40,0.218,0.195,0.318,0.297,0.277,0.158,0.095,-,CALM,��
2019/02/18,22:50,0.216,0.196,0.319,0.297,0.278,0.159,0.096,���k��,0.7,��
2019/02/18,23:00,0.216,0.197,0.319,0.297,0.279,0.159,0.095,�k,0.9,��
2019/02/18,23:10,0.216,0.195,0.317,0.297,0.277,0.159,0.096,�k,1.1,��
2019/02/18,23:20,0.217,0.195,0.318,0.297,0.277,0.159,0.096,�k,2.4,��
2019/02/18,23:30,0.217,0.195,0.320,0.296,0.277,0.158,0.096,�k�k��,1.7,��
2019/02/18,23:40,0.216,0.196,0.318,0.296,0.278,0.158,0.095,�k��,2.0,��
2019/02/18,23:50,0.217,0.196,0.318,0.297,0.277,0.159,0.095,�k�k��,2.4,��
